Temperature
19 19 19 19 19 19 19 20 20 20 19 19 19 19 19 19 19 19 19 19 18 18 18 18 18 18 18 18 18 18 18 18 18 18 17 17 17 17 17 17 17 17 17
20 19 19 19 19 19 20 20 20 20 20 19 19 19 19 19 19 19 19 19 18 18 18 18 18 18 18 18 18 18 18 18 18 17 17 17 17 17 17 17 17 17 17
20 19 19 19 19 20 20 20 20 20 20 20 19 19 19 19 19 19 19 18 18 18 18 18 18 18 18 18 18 18 18 18 18 17 17 17 17 17 17 17 17 17 17
20 20 19 19 19 20 20 20 20 20 20 20 19 19 19 19 19 19 19 18 18 18 18 18 18 18 18 18 18 18 18 18 18 18 17 17 17 17 17 17 17 17 17
20 20 20 20 20 20 20 20 20 20 20 20 19 19 19 19 19 19 19 18 18 18 18 18 18 18 18 18 18 18 18 18 18 18 17 17 17 17 17 17 17 17 17
20 20 20 19 20 20 20 20 20 20 20 19 19 19 19 19 19 19 18 18 18 18 18 18 18 18 18 18 18 18 18 18 18 17 17 17 17 17 17 17 17 17 17
20 20 19 19 19 20 20 20 20 20 19 19 19 19 19 19 19 18 19 18 18 18 18 18 18 18 18 17 17 18 18 18 18 18 17 17 17 17 17 17 17 17 17
20 20 19 19 19 19 19 19 19 19 19 19 19 19 19 19 19 19 18 18 18 18 18 18 17 17 17 17 17 18 18 18 18 18 17 17 17 17 17 17 17 17 17
20 19 19 19 19 19 19 19 19 19 19 19 19 19 19 18 18 18 18 18 18 18 18 17 17 17 17 17 17 18 18 18 18 18 17 17 17 17 17 17 17 17 17
19 19 19 19 19 19 19 19 19 19 19 19 19 19 18 18 18 18 18 18 18 18 18 17 17 17 17 17 17 18 18 18 18 18 18 17 17 17 17 17 17 17 17
18 19 19 19 19 19 19 19 19 19 19 19 19 18 18 18 18 18 18 18 18 18 18 17 17 17 17 17 17 18 18 18 18 18 17 17 17 17 17 17 17 17 17
18 18 19 19 19 19 19 18 19 19 19 19 19 18 18 18 18 18 18 18 18 18 18 17 17 17 17 17 18 18 18 18 18 18 18 17 17 17 17 17 17 17 17
19 18 18 18 19 19 19 18 19 19 19 18 18 18 18 18 18 18 18 18 18 17 18 17 17 17 17 17 18 18 18 18 18 18 18 17 17 17 17 17 17 17 17
18 18 18 19 18 18 18 18 18 18 18 18 18 18 18 18 18 18 18 18 17 17 17 17 17 17 17 17 17 17 17 17 17 17 17 17 17 17 17 17 17 17 17
18 18 19 19 18 18 18 18 18 18 18 18 18 18 18 18 18 18 17 17 17 17 17 17 17 17 17 17 17 17 17 17 17 17 17 17 17 17 17 17 17 17 17
18 18 18 18 18 18 18 18 18 18 18 18 18 18 18 18 17 17 17 17 17 17 17 17 17 17 17 17 17 17 17 17 17 17 17 17 17 17 17 17 16 16 16
18 18 18 18 18 18 18 18 18 18 18 18 18 17 17 17 17 17 17 17 17 17 17 17 17 17 17 17 17 17 17 17 17 17 17 17 17 17 16 16 16 16 16
18 18 18 18 18 18 18 18 18 18 18 18 17 17 17 17 17 17 17 17 17 17 17 17 17 17 17 17 17 17 17 17 17 17 17 16 16 16 16 16 16 16 16
18 18 18 18 18 18 18 18 17 17 17 17 17 17 17 17 17 17 16 16 16 16 16 16 16 16 16 16 16 16 16 16 16 16 16 16 16 16 16 16 16 16 16
18 18 18 18 18 17 17 17 17 17 17 17 17 17 17 17 16 16 16 16 16 16 16 16 16 16 16 16 16 16 16 16 16 16 16 16 16 16 16 16 16 16 16
18 17 18 18 17 17 17 17 17 17 17 17 17 17 16 16 16 16 16 16 16 16 16 16 16 16 16 16 16 16 16 16 16 16 16 16 16 16 16 16 16 15 15
18 17 17 17 17 17 17 17 17 17 17 17 16 16 16 16 16 16 16 16 16 16 16 16 16 16 16 16 16 16 16 16 16 16 16 16 16 16 16 16 15 15 15
17 17 17 17 17 17 17 17 17 16 16 16 16 16 16 16 16 16 16 16 16 16 16 15 16 16 16 16 16 16 16 16 16 16 16 16 16 16 16 15 15 15 15
17 17 17 17 17 17 17 17 17 16 16 16 16 16 16 16 16 15 15 15 15 15 15 15 15 15 15 16 16 16 16 16 16 15 15 15 15 15 15 15 15 15 15
17 17 17 17 17 17 17 17 17 17 17 16 16 16 16 16 15 15 15 15 15 15 15 15 15 15 15 15 15 15 16 16 16 15 15 15 15 15 15 15 15 15 15
17 17 17 17 17 17 16 16 17 17 16 16 16 16 16 16 15 15 15 15 15 15 15 15 15 15 15 15 15 15 15 15 15 15 15 15 15 15 15 15 15 15 14
Wind_Speed
9 13 21 21 20 20 21 21 21 21 20 20 20 19 19 18 17 16 16 15 15 14 15 15 14 14 15 15 15 16 16 15 16 16 17 17 17 17 17 18 17 16 19
14 18 23 22 21 21 21 21 21 20 20 19 19 18 18 17 17 16 15 15 15 15 15 15 15 15 15 15 15 16 16 16 16 16 17 16 17 17 17 17 16 15 18
17 17 22 22 22 21 20 20 20 20 19 19 18 18 17 17 16 16 15 15 15 15 15 15 15 15 15 15 15 15 15 16 16 16 15 14 15 16 16 17 17 17 17
17 17 20 23 22 21 21 20 20 19 19 18 17 17 16 16 16 15 15 15 15 15 15 15 15 15 15 14 14 14 15 15 16 15 12 12 12 15 16 16 16 16 16
15 17 21 24 22 21 20 20 19 19 18 18 17 16 16 16 15 15 15 15 15 15 15 15 15 14 14 14 13 13 13 13 14 13 11 11 12 14 15 15 15 15 15
13 16 21 24 23 21 20 19 19 18 17 17 16 15 15 15 15 15 14 14 14 14 14 14 14 14 13 12 12 12 13 13 13 11 11 11 12 14 14 14 14 15 15
14 13 20 23 22 22 20 19 18 18 17 16 16 15 15 15 14 14 14 13 13 14 14 13 13 13 11 10 11 11 12 13 12 11 10 10 11 13 14 14 14 14 14
15 12 18 23 22 21 20 19 18 17 17 16 15 15 14 14 13 13 13 13 13 13 12 12 12 11 10 9 10 12 12 13 11 11 10 9 11 13 13 13 13 13 13
12 11 12 18 20 20 20 19 18 17 16 16 15 14 14 13 13 12 12 12 12 11 11 11 10 10 9 9 10 11 11 12 11 10 10 9 11 12 12 12 12 12 12
9 9 9 12 15 16 17 19 18 17 16 15 14 14 13 13 12 11 10 11 10 10 10 9 8 8 8 8 9 11 11 12 10 9 8 9 11 11 12 12 12 12 12
11 8 9 9 11 13 14 17 17 17 16 15 14 14 12 10 10 9 9 9 9 9 8 8 7 7 7 7 8 10 10 9 9 8 8 9 11 11 11 11 11 11 11
14 11 9 10 9 11 12 13 12 13 13 11 10 10 9 9 8 8 8 8 8 8 7 7 6 7 7 6 6 8 7 8 7 7 8 10 10 10 10 10 10 10 10
14 13 10 10 9 9 6 9 8 9 9 9 10 10 9 8 6 5 4 5 5 6 6 6 6 6 5 5 5 5 6 6 6 6 7 10 10 10 10 9 9 10 10
14 13 11 10 9 8 7 7 7 6 7 7 8 10 9 5 4 4 3 4 4 5 5 5 5 5 5 4 4 4 4 4 5 5 6 9 9 9 9 9 9 9 9
13 13 12 11 10 8 7 6 7 6 6 8 8 9 9 6 4 4 4 4 4 4 4 4 4 4 3 3 2 3 3 2 3 4 4 7 9 9 9 9 8 8 9
13 12 11 11 9 8 6 6 6 7 8 8 7 8 9 8 6 4 4 3 3 4 4 4 4 3 2 2 2 2 2 2 2 3 3 4 6 8 8 8 8 9 9
13 11 10 10 9 9 8 7 6 7 8 7 7 9 9 9 8 6 4 3 3 5 5 5 4 3 2 2 2 2 1 1 2 2 2 3 3 5 6 7 8 8 9
10 11 11 12 10 9 7 6 5 7 7 6 8 8 9 9 9 7 4 3 5 5 5 3 3 3 2 2 1 1 1 1 0 1 2 2 2 3 4 6 8 8 8
11 11 11 10 10 9 8 6 5 6 6 7 8 8 8 9 10 8 5 5 7 5 3 3 2 2 2 2 1 2 2 2 1 1 0 1 2 3 3 5 6 7 7
11 11 10 10 10 9 7 5 4 4 4 5 6 8 10 9 9 8 5 6 7 4 3 3 3 2 2 2 2 3 3 3 2 2 1 1 0 1 2 2 3 3 5
10 11 11 10 10 9 7 7 6 5 4 4 4 8 10 10 10 8 5 5 5 4 4 4 3 3 2 2 3 3 3 4 3 3 2 2 1 1 0 1 1 1 1
12 11 10 10 10 9 7 6 4 5 4 3 3 6 9 11 10 8 7 5 5 5 4 4 3 3 2 2 2 3 2 3 3 4 3 2 2 2 2 2 1 0 1
10 11 11 10 9 9 8 6 6 5 4 3 3 4 5 9 10 9 8 7 5 5 5 4 4 5 3 2 2 3 3 2 1 3 3 4 3 3 3 3 2 1 1
10 9 9 9 9 8 10 10 11 7 6 5 4 4 4 7 9 9 9 8 6 4 5 4 4 3 4 3 2 2 2 3 3 1 2 3 3 3 3 2 3 2 2
10 10 9 9 9 8 9 11 10 7 5 4 5 6 5 4 6 8 9 8 6 5 5 4 4 4 3 4 3 2 2 2 2 2 1 2 2 3 3 2 2 2 2
9 9 9 9 9 9 10 9 10 10 9 9 7 7 5 4 3 5 7 7 6 5 5 4 4 5 4 4 3 2 3 2 2 2 2 0 1 2 3 2 2 2 2
Wind_Direction
159 159 150 144 138 133 128 125 122 121 120 120 120 119 119 118 117 116 114 113 111 109 106 104 103 103 104 104 105 107 108 109 111 112 113 113 113 112 112 111 109 110 112
150 157 152 147 142 137 133 129 126 125 124 123 122 121 121 120 119 117 116 114 111 108 107 106 105 105 105 106 107 108 110 111 112 113 113 112 112 112 113 112 111 114 114
147 154 152 149 145 141 137 133 130 128 127 125 124 124 124 123 121 119 117 114 111 109 108 107 107 106 106 108 110 111 112 112 112 111 110 109 112 113 114 115 115 116 116
147 151 153 151 148 144 141 137 134 132 130 128 127 127 127 126 124 121 119 116 114 112 110 109 108 108 109 111 112 112 113 112 113 110 107 111 115 117 116 116 118 119 118
146 150 156 153 151 148 144 141 138 136 134 132 131 131 130 129 127 124 121 118 116 115 113 111 111 111 111 114 115 115 117 116 113 109 107 108 114 120 118 118 119 120 120
146 151 159 156 154 151 148 146 142 140 138 136 136 135 133 131 130 128 124 120 118 115 114 113 112 111 111 114 117 120 121 119 114 111 110 113 119 123 122 121 120 121 120
148 155 161 158 157 155 153 150 147 144 143 140 139 138 137 135 132 130 127 123 120 117 115 113 112 109 109 113 120 125 125 123 122 117 116 119 125 126 125 124 124 124 124
152 154 161 162 160 159 157 154 152 150 148 145 144 143 140 139 136 131 130 126 121 118 116 114 110 104 103 108 118 126 128 129 128 126 124 127 132 130 129 127 125 125 126
151 154 158 163 163 162 161 158 156 154 153 150 149 148 146 144 141 137 134 130 125 120 117 113 108 101 98 103 117 127 130 133 131 133 135 136 137 135 133 132 130 129 130
150 156 155 159 159 160 163 162 160 158 157 155 155 154 152 149 146 144 139 135 129 125 120 114 107 100 94 100 119 130 132 131 134 136 138 147 146 143 140 138 135 134 134
161 160 156 156 156 157 162 167 163 162 162 160 160 160 154 146 146 145 145 143 137 133 125 116 109 101 92 98 121 134 127 133 138 139 147 155 154 152 149 146 144 142 141
171 169 164 161 158 155 166 165 160 160 160 157 157 152 141 141 146 149 157 152 146 139 126 114 104 93 86 85 103 122 126 139 144 150 160 164 163 161 158 156 154 152 151
173 171 168 165 159 157 154 154 152 147 149 150 152 147 143 143 147 143 144 137 130 123 103 96 89 85 84 85 92 111 129 138 149 159 171 173 172 171 169 168 167 165 163
171 172 168 166 161 160 153 154 149 146 149 154 156 153 148 145 142 140 131 120 112 108 102 95 91 85 80 81 98 115 135 140 150 160 177 181 182 182 180 179 180 180 177
174 172 171 169 166 163 153 159 157 152 158 162 160 162 161 155 154 149 141 134 128 124 121 112 101 94 85 72 83 120 134 143 152 160 176 186 191 193 191 191 193 195 192
180 176 171 170 166 160 158 162 158 159 162 163 167 172 169 163 159 151 140 140 142 143 135 125 117 109 92 80 67 87 140 158 167 171 182 196 202 205 204 205 207 208 206
179 174 172 170 163 164 165 169 163 165 165 165 170 175 173 167 160 153 146 149 159 151 134 115 103 94 83 75 59 53 91 148 173 182 193 203 213 221 220 222 221 217 218
170 171 175 179 170 170 167 165 161 165 163 166 168 171 171 168 164 156 155 156 157 144 133 121 106 93 81 80 65 27 23 25 64 196 198 205 220 239 238 238 233 226 227
171 173 174 170 168 171 166 160 158 155 159 165 162 162 165 166 165 159 157 152 148 136 129 132 101 109 111 101 93 50 27 29 22 34 211 230 234 245 254 255 245 235 233
172 173 172 165 167 165 157 147 144 145 155 151 156 160 159 160 161 155 148 145 143 132 128 123 115 88 95 103 87 60 30 25 40 37 32 35 274 248 260 261 255 248 241
170 171 172 167 168 165 165 166 167 169 164 159 163 160 157 155 157 152 144 139 141 143 149 143 122 102 74 81 90 53 22 28 39 27 27 38 27 9 19 295 281 269 273
174 174 171 169 171 171 170 165 156 146 146 152 151 151 156 155 157 157 148 149 144 135 135 139 132 120 87 73 115 103 52 9 8 19 25 37 32 46 49 61 94 279 330
175 176 176 172 170 167 158 139 130 111 101 121 143 149 154 156 157 151 152 148 146 146 152 155 149 136 127 71 75 137 143 190 321 357 18 31 34 44 34 36 41 28 16
181 178 169 169 168 165 159 160 158 161 162 175 163 149 141 149 150 151 152 148 144 143 146 154 145 134 133 132 85 60 101 140 136 64 358 11 29 40 26 26 38 43 54
172 168 164 162 163 163 161 162 161 156 149 139 135 135 134 137 148 153 150 145 142 141 144 140 136 134 134 145 147 131 96 74 85 130 119 354 12 17 19 12 23 39 46
165 163 163 162 164 163 162 163 165 159 152 147 149 152 149 142 142 147 147 144 144 142 144 143 138 137 135 132 135 139 146 142 143 134 140 127 356 341 350 1 15 15 21
Height
1503 1506 1510 1512 1515 1517 1519 1521 1523 1524 1526 1527 1528 1529 1530 1531 1532 1533 1534 1535 1536 1537 1538 1539 1540 1541 1542 1543 1544 1545 1546 1547 1548 1549 1551 1552 1553 1554 1555 1557 1558 1559 1560
1500 1505 1510 1513 1516 1518 1521 1522 1524 1526 1527 1529 1530 1531 1532 1533 1534 1535 1536 1537 1538 1539 1540 1541 1542 1543 1544 1545 1546 1547 1548 1549 1550 1552 1553 1554 1555 1556 1558 1559 1560 1561 1563
1501 1505 1510 1513 1517 1519 1522 1524 1525 1527 1529 1530 1532 1533 1534 1535 1536 1537 1538 1539 1540 1541 1542 1543 1544 1545 1546 1547 1548 1549 1551 1552 1553 1554 1555 1556 1558 1559 1560 1561 1562 1564 1565
1501 1506 1510 1514 1517 1520 1523 1525 1527 1529 1530 1532 1533 1535 1536 1537 1538 1539 1540 1541 1542 1543 1544 1545 1546 1547 1548 1550 1551 1552 1553 1554 1555 1556 1558 1559 1560 1561 1562 1563 1564 1566 1567
1502 1506 1511 1514 1518 1521 1524 1526 1528 1530 1532 1533 1535 1536 1538 1539 1540 1541 1542 1543 1544 1545 1546 1547 1549 1550 1551 1552 1553 1554 1555 1557 1558 1559 1560 1561 1562 1563 1564 1565 1567 1568 1569
1503 1507 1511 1515 1519 1522 1525 1527 1529 1531 1533 1535 1536 1538 1539 1541 1542 1543 1544 1545 1546 1547 1549 1550 1551 1552 1553 1555 1556 1557 1558 1559 1560 1561 1562 1563 1564 1565 1566 1567 1569 1570 1571
1503 1508 1512 1516 1519 1522 1525 1528 1530 1532 1534 1536 1538 1539 1541 1542 1544 1545 1546 1547 1548 1549 1551 1552 1553 1555 1556 1557 1558 1559 1560 1561 1562 1563 1564 1565 1566 1567 1568 1570 1571 1572 1573
1504 1508 1513 1516 1520 1523 1526 1529 1531 1533 1535 1537 1539 1541 1543 1544 1546 1547 1548 1549 1550 1552 1553 1554 1556 1557 1558 1559 1560 1561 1562 1563 1564 1565 1566 1567 1568 1569 1570 1571 1573 1574 1575
1504 1508 1512 1517 1520 1524 1527 1529 1532 1534 1536 1538 1540 1542 1544 1546 1547 1549 1550 1551 1553 1554 1555 1557 1558 1559 1560 1561 1562 1563 1564 1565 1566 1567 1568 1569 1570 1571 1572 1573 1574 1576 1577
1505 1508 1512 1516 1520 1523 1527 1530 1532 1535 1537 1539 1541 1543 1545 1547 1549 1550 1552 1553 1554 1556 1557 1558 1560 1561 1562 1563 1564 1565 1566 1567 1567 1568 1569 1570 1571 1573 1574 1575 1576 1577 1578
1505 1508 1512 1516 1520 1523 1526 1530 1532 1535 1537 1540 1542 1544 1546 1548 1550 1551 1553 1554 1556 1557 1558 1560 1561 1562 1564 1565 1566 1567 1568 1568 1569 1570 1571 1572 1573 1574 1575 1576 1578 1579 1580
1502 1507 1511 1515 1519 1522 1526 1529 1532 1535 1537 1540 1542 1544 1547 1548 1550 1552 1554 1555 1557 1558 1560 1561 1562 1564 1565 1566 1567 1568 1569 1570 1571 1571 1572 1573 1575 1576 1577 1578 1579 1580 1581
1500 1505 1510 1514 1518 1522 1525 1527 1531 1534 1537 1540 1542 1545 1547 1549 1551 1553 1555 1556 1558 1559 1561 1562 1563 1565 1566 1567 1568 1569 1570 1571 1572 1573 1573 1575 1576 1577 1578 1579 1580 1581 1582
1499 1503 1508 1513 1517 1521 1525 1527 1531 1534 1537 1540 1543 1545 1547 1549 1552 1554 1555 1557 1559 1560 1561 1563 1564 1566 1567 1568 1569 1570 1571 1572 1572 1573 1574 1575 1576 1578 1579 1580 1581 1582 1583
1498 1502 1507 1512 1516 1520 1524 1528 1530 1534 1537 1540 1543 1545 1548 1550 1552 1554 1556 1558 1559 1561 1562 1563 1565 1566 1568 1569 1570 1570 1571 1572 1573 1574 1575 1576 1577 1578 1579 1580 1581 1582 1583
1497 1502 1506 1510 1515 1519 1523 1527 1530 1534 1537 1540 1543 1545 1548 1550 1552 1554 1556 1558 1560 1561 1562 1564 1565 1566 1568 1569 1570 1571 1572 1573 1573 1574 1575 1576 1577 1578 1579 1580 1581 1582 1583
1496 1501 1505 1510 1514 1519 1523 1527 1530 1533 1537 1540 1542 1545 1547 1550 1552 1554 1556 1558 1560 1561 1563 1564 1565 1566 1568 1569 1570 1571 1572 1573 1573 1574 1575 1576 1577 1578 1579 1580 1581 1582 1583
1496 1500 1505 1509 1513 1518 1521 1526 1530 1533 1536 1539 1542 1544 1547 1550 1552 1553 1555 1557 1559 1561 1562 1563 1564 1566 1567 1568 1569 1570 1571 1572 1573 1574 1575 1576 1577 1578 1579 1580 1580 1581 1582
1495 1499 1503 1507 1511 1516 1520 1525 1529 1532 1535 1538 1541 1544 1546 1548 1551 1553 1555 1556 1558 1560 1562 1563 1564 1565 1566 1568 1569 1570 1571 1572 1573 1574 1575 1576 1577 1577 1578 1579 1580 1581 1582
1493 1497 1501 1505 1509 1514 1519 1523 1527 1530 1534 1537 1540 1542 1545 1547 1550 1552 1554 1556 1557 1559 1561 1562 1564 1565 1566 1567 1568 1569 1570 1571 1572 1573 1574 1575 1576 1577 1578 1578 1579 1580 1581
1490 1494 1499 1503 1507 1512 1516 1520 1523 1527 1531 1535 1538 1541 1544 1546 1548 1551 1552 1554 1556 1558 1560 1561 1562 1564 1565 1566 1567 1569 1570 1571 1572 1572 1573 1574 1575 1576 1577 1578 1578 1579 1580
1487 1491 1496 1500 1505 1509 1513 1518 1522 1526 1530 1533 1537 1540 1542 1545 1547 1549 1551 1553 1555 1557 1559 1560 1561 1562 1563 1565 1567 1568 1569 1571 1571 1572 1572 1573 1574 1575 1576 1577 1577 1578 1578
1485 1489 1493 1498 1503 1507 1512 1516 1520 1525 1528 1532 1535 1538 1541 1543 1546 1548 1550 1552 1554 1556 1557 1559 1560 1561 1563 1564 1566 1568 1569 1569 1570 1571 1571 1572 1573 1574 1575 1576 1576 1577 1577
1483 1488 1492 1497 1501 1505 1510 1514 1518 1522 1525 1529 1533 1536 1539 1542 1545 1547 1549 1551 1553 1555 1556 1558 1559 1560 1562 1563 1565 1566 1568 1568 1569 1570 1571 1572 1573 1574 1574 1575 1576 1576 1576
1482 1486 1491 1495 1500 1504 1508 1512 1517 1521 1525 1529 1532 1535 1538 1541 1544 1546 1548 1550 1552 1554 1555 1557 1558 1560 1561 1563 1564 1565 1566 1567 1568 1569 1570 1571 1572 1573 1573 1574 1575 1575 1575
1481 1485 1490 1494 1498 1502 1506 1511 1516 1520 1524 1527 1530 1534 1537 1540 1542 1545 1547 1550 1551 1553 1555 1556 1558 1559 1560 1562 1563 1564 1565 1566 1567 1568 1569 1570 1571 1572 1572 1573 1573 1574 1574